Location: K�ln
(50.9455°N, 6.9544°E)
Time: 05:57:40
(UTC+01:00)

OTV 5 (USA 277) - Visible Passes

Search period start: 23 February 2018 00:00
Search period end: 05 March 2018 00:00
Orbit: 404 x 417 km, 43.0° (Epoch: 07 September)

Date Brightness Start Highest point End Pass type
(mag) Time Alt. Az. Time Alt. Az. Time Alt. Az.
23 Feb ? 05:53:02 10° S 05:54:23 12° SSE 05:55:45 10° SE visible
24 Feb ? 06:37:38 10° SW 06:40:03 19° S 06:42:29 10° SE visible
25 Feb ? 05:47:48 14° SSW 05:49:10 17° SSE 05:51:24 10° SE visible
26 Feb ? 04:59:06 14° SE 04:59:06 14° SE 05:00:13 10° SE visible
26 Feb ? 06:32:22 10° SW 06:34:54 21° S 06:37:27 10° SE visible
27 Feb ? 05:43:07 18° SSW 05:44:00 20° S 05:46:31 10° SE visible
28 Feb ? 04:54:23 16° SE 04:54:23 16° SE 04:55:31 10° SE visible
28 Feb ? 06:27:23 10° SW 06:29:46 19° S 06:32:08 10° SE visible
01 Mar ? 05:38:23 19° SSW 05:38:51 20° S 05:41:21 10° SE visible
02 Mar ? 04:49:40 14° SE 04:49:40 14° SE 04:50:29 10° SE visible
02 Mar ? 06:22:47 10° SW 06:24:34 14° SSW 06:26:21 10° SSE visible
03 Mar ? 05:33:44 16° SSW 05:33:44 16° SSW 05:35:51 10° SSE visible
04 Mar ? 04:45:06 10° SE 04:45:06 10° SE 04:45:11 10° SE visible
